Location: Huisseau
(47.5933°N, 1.4533°E)
Time: 22:38:06
(UTC+00:00)

Cosmos 1943 Rocket - Visible Passes

Search period start: 18 November 2025 00:00
Search period end: 28 November 2025 00:00
Orbit: 812 x 842 km, 71.0° (Epoch: 18 November)

Date Brightness Start Highest point End Pass type
(mag) Time Alt. Az. Time Alt. Az. Time Alt. Az.
18 Nov 2.1 17:23:38 10° SSW 17:29:13 73° ESE 17:34:48 10° NNE visible
18 Nov 4.1 19:09:03 10° W 19:13:31 24° NW 19:16:48 15° N visible
19 Nov 2.2 17:04:06 10° SSW 17:09:38 64° ESE 17:15:10 10° NNE visible
19 Nov 4.0 18:49:10 10° WSW 18:53:49 26° NW 18:57:51 13° N visible
20 Nov 2.3 16:44:36 10° S 16:50:04 57° ESE 16:55:31 10° NE visible
20 Nov 3.9 18:29:18 10° WSW 18:34:07 29° NW 18:38:53 10° N visible
21 Nov 3.7 18:09:28 10° WSW 18:14:26 32° NW 18:19:25 10° NNE visible
22 Nov 3.6 17:49:40 10° WSW 17:54:46 35° NW 17:59:52 10° NNE visible
23 Nov 3.4 17:29:53 10° WSW 17:35:06 39° NW 17:40:19 10° NNE visible
23 Nov 4.8 19:19:16 10° NW 19:20:30 11° NNW 19:21:44 10° NNW visible
24 Nov 3.2 17:10:07 10° SW 17:15:26 43° NW 17:20:45 10° NNE visible
24 Nov 4.7 18:58:50 10° NW 19:00:43 12° NNW 19:02:37 10° N visible
25 Nov 3.0 16:50:23 10° SW 16:55:47 49° NW 17:01:12 10° NNE visible
25 Nov 4.6 18:38:35 10° WNW 18:40:57 13° NNW 18:43:19 10° N visible
26 Nov 4.6 18:18:25 10° WNW 18:21:11 14° NW 18:23:57 10° N visible
27 Nov 4.5 17:58:19 10° WNW 18:01:26 15° NW 18:04:33 10° N visible
